Preview of NWS' New Version of Forecast
This preview is not operational and should not be used for support decisions.

Regional Weather Roundup (RWR)

Issued by National Weather Service (NWS)

                            
000
ASCA42 TJSJ 261810
RWRPR 
PUERTO RICO/U.S. VIRGIN ISLANDS HOURLY WEATHER ROUNDUP
NATIONAL WEATHER SERVICE SAN JUAN PR
200 PM AST TUE MAR 26 2019

PRZ001>002-007>008-010-261900-
PUERTO RICO
  
CITY           SKY/WX    TMP DP  RH WIND       PRES   REMARKS
SAN JUAN LMM   MOSUNNY   90  64  43 S10G20    29.93F HX  91           
AGUADILLA      SUNNY     82  70  65 NE10      29.96F                  
CEIBA          SUNNY     86  72  62 S16       29.97F HX  92           
$$

VIZ001>002-261900-
U.S. VIRGIN ISLANDS
  
CITY           SKY/WX    TMP DP  RH WIND       PRES   REMARKS
CHARLOTTE AMA  MOSUNNY   86  73  66 SE15      29.96F HX  93           
CHRISTIANSTED  MOSUNNY   84  72  65 SE14      29.96F                  
$$

HOURLY WEATHER ROUNDUP FOR THE NEWS MEDIA
  
CITY           SKY/WX    TMP DP  RH WIND       PRES   REMARKS
ORLANDO        FAIR      81  59  47 NW9       29.99F                  
NEW YORK       FAIR      46   3  17 N16G22    30.29F                  
NEWARK         FAIR      46   3  17 NE10G18   30.29S                  
CHICAGO        FAIR      43   7  22 SW5       30.46F                  
HARTFORD       FAIR      44   4  19 NE20      30.22F                  
BOSTON         FAIR      43  -1  16 N9        30.25F                  
DALLAS         MOSUNNY   66  45  46 VRB5      30.36F                  
PHILADELPHIA   FAIR      46   6  19 N9G21     30.30F                  
LOS ANGELES    PTSUNNY   62  52  69 W6        30.05S                  
WASHINGTON DC  FAIR      46  14  27 N14G24    30.30F